This is the latest recevied weather packets stored in our database for station/object N7ZAP. If no packets are shown the sender has not sent any weather packets the latest 10 day(s).
| Time | Temp. | Humidity | Pressure | Rain* | Wind** | Luminosity | Snow |
|---|---|---|---|---|---|---|---|
| 1787882457 | 30.56° C | 25% | 1021.7 hPa | 0 mm | - | - | - |
| 1787882147 | 30.56° C | 25% | 1021 hPa | 0 mm | - | - | - |
| 1787881846 | 30.56° C | 25% | 1020.5 hPa | 0 mm | - | - | - |
| 1787881542 | 31.11° C | 25% | 1020.5 hPa | 0 mm | - | - | - |
| 1787881238 | 31.11° C | 24% | 1020.3 hPa | 0 mm | - | - | - |
| 1787880933 | 31.67° C | 23% | 1020.2 hPa | 0 mm | - | - | - |
| 1787880633 | 32.22° C | 22% | 1020.2 hPa | 0 mm | - | - | - |
| 1787880331 | 32.78° C | 21% | 1020.2 hPa | 0 mm | - | - | - |
| 1787880027 | 33.33° C | 21% | 1019.9 hPa | 0 mm | - | - | - |
| 1787879721 | 34.44° C | 19% | 1019.7 hPa | 0 mm | - | - | - |
| 1787879416 | 35° C | 18% | 1020.2 hPa | 0 mm | - | - | - |
| 1787879112 | 35.56° C | 17% | 1019.6 hPa | 0 mm | - | - | - |
| 1787878809 | 35.56° C | 16% | 1019.7 hPa | 0 mm | - | - | - |
| 1787878508 | 36.11° C | 16% | 1019.9 hPa | 0 mm | - | - | - |
| 1787878203 | 35.56° C | 16% | 1019.8 hPa | 0 mm | - | - | - |
| 1787877899 | 35.56° C | 16% | 1019.6 hPa | 0 mm | - | - | - |
| 1787877600 | 36.11° C | 16% | 1019.7 hPa | 0 mm | - | - | - |
| 1787877290 | 36.11° C | 16% | 1019.8 hPa | 0 mm | - | - | - |
| 1787876989 | 36.67° C | 15% | 1019.6 hPa | 0 mm | - | - | - |
| 1787876685 | 36.67° C | 16% | 1019.5 hPa | 0 mm | - | - | - |
| 1787876380 | 36.67° C | 15% | 1019.6 hPa | 0 mm | - | - | - |
| 1787876079 | 37.22° C | 15% | 1019.8 hPa | 0 mm | - | - | - |
| 1787875774 | 37.22° C | 15% | 1019.7 hPa | 0 mm | - | - | - |
| 1787875473 | 37.22° C | 15% | 1019.7 hPa | 0 mm | - | - | - |
| 1787875172 | 37.22° C | 15% | 1019.9 hPa | 0 mm | - | - | - |
* Rain latest hour (hover to see other rain measurements)
** Current wind speed in m/s (hover to see current wind gust speed)